This is the latest recevied weather packets stored in our database for station/object NR6G-12. If no packets are shown the sender has not sent any weather packets the latest 10 day(s).
| Time | Temp. | Humidity | Pressure | Rain* | Wind** | Luminosity | Snow |
|---|---|---|---|---|---|---|---|
| 1778037422 | 5.56° C | 92% | 1014.7 hPa | 0 mm | - | - | - |
| 1778037063 | 5.56° C | 92% | 1014.5 hPa | 0 mm | - | - | - |
| 1778036704 | 5.56° C | 91% | 1014.6 hPa | 0 mm | - | - | - |
| 1778036342 | 5.56° C | 91% | 1014.4 hPa | 0 mm | - | - | - |
| 1778035982 | 5.56° C | 90% | 1014.5 hPa | 0 mm | - | - | - |
| 1778035622 | 6.11° C | 90% | 1014.5 hPa | 0 mm | - | - | - |
| 1778035262 | 6.11° C | 91% | 1014.4 hPa | 0 mm | - | - | - |
| 1778034542 | 6.11° C | 91% | 1014.4 hPa | 0 mm | - | - | - |
| 1778034182 | 6.11° C | 93% | 1014.4 hPa | 0 mm | - | - | - |
| 1778033822 | 6.11° C | 93% | 1014.4 hPa | 0 mm | - | - | - |
| 1778033462 | 6.11° C | 93% | 1014.4 hPa | 0 mm | - | - | - |
| 1778033103 | 6.67° C | 92% | 1014.3 hPa | 0 mm | - | - | - |
| 1778032742 | 6.67° C | 93% | 1014.4 hPa | 0 mm | - | - | - |
| 1778032382 | 6.67° C | 94% | 1014.4 hPa | 0 mm | - | - | - |
| 1778032022 | 6.67° C | 94% | 1014.3 hPa | 0 mm | - | - | - |
| 1778031662 | 7.22° C | 94% | 1014.3 hPa | 0 mm | - | - | - |
| 1778031303 | 7.22° C | 94% | 1014.2 hPa | 0 mm | - | - | - |
| 1778030942 | 7.22° C | 94% | 1014.2 hPa | 0 mm | - | - | - |
| 1778030582 | 7.22° C | 96% | 1014.3 hPa | 0 mm | - | - | - |
| 1778030222 | 7.22° C | 96% | 1014.4 hPa | 0 mm | - | - | - |
| 1778029862 | 6.67° C | 96% | 1014.3 hPa | 0 mm | - | - | - |
| 1778029504 | 6.67° C | 96% | 1014.4 hPa | 0 mm | - | - | - |
| 1778029142 | 6.67° C | 96% | 1014.4 hPa | 0 mm | - | - | - |
| 1778028782 | 6.67° C | 97% | 1014.4 hPa | 0 mm | - | - | - |
| 1778028422 | 6.11° C | 97% | 1014.3 hPa | 0 mm | - | - | - |
* Rain latest hour (hover to see other rain measurements)
** Current wind speed in m/s (hover to see current wind gust speed)